Regional Weather Roundup
Issued by NWS

Home | Current Version | Previous Version | Graphics & Text | Print | Product List | Glossary On
Versions: 1 2 3 4 5 6 7 8 9 10 11 12 13 14 15 16 17 18 19 20 21 22 23 24 25 26 27 28 29 30 31 32 33 34 35 36 37 38 39 40 41 42 43 44 45 46 47 48 49 50
000
ASUS43 KIND 301959
RWRIN

WEATHER ROUNDUP FOR INDIANA
NATIONAL WEATHER SERVICE INDIANAPOLIS IN
400 PM EDT THU OCT 30 2014

NOTE: "FAIR" INDICATES FEW OR NO CLOUDS BELOW 12,000 FEET WITH NO
SIGNIFICANT WEATHER AND/OR OBSTRUCTIONS TO VISIBILITY.

* - STATION DOES NOT REPORT WEATHER SUCH AS PRECIPITATION OR FOG.

+ - STATION NOT QUALITY CONTROLLED BY THE NATIONAL WEATHER SERVICE.
    USE DATA WITH CAUTION...ESPECIALLY DEWPOINT AND RELATIVE
    HUMIDITY OBSERVATIONS.

INZ001>003-010>013-019-020-302100-
NORTHWEST INDIANA

CITY           SKY/WX    TMP DP  RH WIND       PRES   REMARKS
GARY /AIRPORT/ CLOUDY    52  34  50 SW7       30.07F
VALPARAISO     NOT AVBL

$$

LMZ046-743>745-302100-
SOUTHERN LAKE MICHIGAN

STATION/POSITION TIME  TEMP WIND        PRES
                       AIR  DIR/SP/G
                 (UTC) (F)  (DEG/KT/KT) (MB)
MICHIGAN CITY    1900   49  190/ 10/ 13   N/A

$$

INZ004-005-014>016-021>024-302100-
NORTH CENTRAL INDIANA

CITY           SKY/WX    TMP DP  RH WIND       PRES   REMARKS
ELKHART        PTSUNNY   50  32  50 W5        30.07F
GOSHEN         CLOUDY    51  35  54 SW8       30.07F
SOUTH BEND     PTSUNNY   52  33  48 SW12      30.08F

$$

INZ006>009-017-018-025>027-302100-
NORTHEAST INDIANA

CITY           SKY/WX    TMP DP  RH WIND       PRES   REMARKS
ANGOLA *+      CLOUDY    48  34  57 SW6       30.07F
FORT WAYNE     CLOUDY    49  35  58 SW7       30.09F

$$

INZ028-029-035-036-043>045-051>053-302100-
WEST CENTRAL INDIANA

CITY           SKY/WX    TMP DP  RH WIND       PRES   REMARKS
GREENCASTLE +  MOSUNNY   54  34  47 CALM      30.07F
LAFAYETTE      MOSUNNY   52  34  50 VRB3      30.07F
TERRE HAUTE    PTSUNNY   54  36  50 SW6       30.08F

$$

INZ030>032-037>040-046>048-054>057-064-065-302100-
CENTRAL INDIANA

CITY           SKY/WX    TMP DP  RH WIND       PRES   REMARKS
ANDERSON       MOSUNNY   50  32  50 CALM      30.09F
COLUMBUS       SUNNY     52  32  46 CALM      30.08F
INDIANAPOLIS   PTSUNNY   52  34  50 CALM      30.06F
-EAGLE CREEK   PTSUNNY   52  34  50 CALM      30.06F
KOKOMO *+      MOSUNNY   54  25  32 S3        30.08F
MT COMFORT *+  PTSUNNY   54  23  30 W3        30.08F
SHELBYVILLE    PTSUNNY   54  34  46 S5        30.07F

$$

INZ033-034-041-042-049-050-058-059-302100-
EAST CENTRAL INDIANA

CITY           SKY/WX    TMP DP  RH WIND       PRES   REMARKS
MUNCIE         PTSUNNY   49  33  54 CALM      30.08F

$$

INZ060-061-067>069-081>083-085>088-302100-
SOUTHWEST INDIANA

CITY           SKY/WX    TMP DP  RH WIND       PRES   REMARKS
EVANSVILLE     SUNNY     58  38  47 VRB3      30.08F
HUNTINGBURG *+ SUNNY     55  37  50 NW6       30.08F

$$

INZ062-063-066-070>080-084-089>092-302100-
SOUTH CENTRAL AND SOUTHEAST INDIANA

CITY           SKY/WX    TMP DP  RH WIND       PRES   REMARKS
BLOOMINGTON    MOSUNNY   55  35  47 MISG      30.07F
SEYMOUR +      PTSUNNY   55  34  44 CALM      30.08

$$




USA.gov is the U.S. government's official web portal to all federal, state and local government web resources and services.